Salt Flat, TX

11:43 PM CST on December 04, 2016 (GMT -0600)
Guadalupe Pass

Weather History for KGDP - January, 2014

Change the Weather History Date:

Wednesday, January 29, 2014

  Actual Average Record
Temperature  
Mean Temperature 33 °F -  
Max Temperature 50 °F 50 °F 64 °F (2016)
Min Temperature 16 °F 32 °F 16 °F (2014)
Degree Days  
Heating Degree Days 32    
Moisture  
Dew Point 4 °F    
Average Humidity 29    
Maximum Humidity 41    
Minimum Humidity 18    
Precipitation  
Precipitation 0.00 in - - ()
Sea Level Pressure  
Sea Level Pressure 30.16 in    
Wind  
Wind Speed 17 mph (WSW)    
Max Wind Speed 37 mph    
Max Gust Speed 32 mph    
Averages and records for this station are not official NWS values.
T = Trace of Precipitation, MM = Missing Value Source: NWS Daily Summary

Daily Weather History Graph

Daily Weather History Graph

Search for Another Location

Airport or City:

Trip Planner

Search our weather history database for the weather conditions in past years. The results will help you decide how hot, cold, wet, or windy it might be!

Date:

Astronomy

Jan. 29, 2014 Rise Set
Actual Time 6:54 AM MST 5:30 PM MST
Civil Twilight 6:28 AM MST 5:56 PM MST
Nautical Twilight 5:59 AM MST 6:25 PM MST
Astronomical Twilight 5:30 AM MST 6:54 PM MST
Moon 5:32 AM MST (1/29) 4:32 PM MST (1/29)
Length of Visible Light 11h 27m
Length of Day
10h 36m
Waning Crescent, 2% of the Moon is Illuminated
Jan 29
Waning Crescent
Jan 30
New
Feb 6
First Quarter
Feb 14
Full
Feb 22
Last Quarter

Hourly Weather History & Observations

Time (MST) Temp. Windchill Dew Point Humidity Pressure Visibility Wind Dir Wind Speed Gust Speed Precip Events Conditions
12:51 AM 21.0 °F - -4.0 °F 33% 30.29 in - Calm Calm - N/A   Clear
1:51 AM 21.9 °F 13.4 °F 1.0 °F 40% 30.27 in - SW 6.9 mph - N/A   Clear
2:51 AM 19.9 °F 6.7 °F -2.0 °F 38% 30.29 in - WSW 13.8 mph - N/A   Clear
3:51 AM 19.9 °F 6.7 °F -0.9 °F 40% 30.29 in - WSW 13.8 mph - N/A   Clear
4:51 AM 18.0 °F 2.6 °F -2.9 °F 40% 30.27 in - WSW 17.3 mph - N/A   Clear
5:51 AM 16.0 °F -0.9 °F -4.0 °F 41% 30.28 in - SW 19.6 mph - N/A   Clear
6:51 AM 17.1 °F 1.0 °F -2.9 °F 41% 30.28 in - SW 18.4 mph - N/A   Clear
7:51 AM 23.0 °F 7.6 °F -0.0 °F 37% 30.25 in - WSW 21.9 mph - N/A   Clear
8:51 AM 23.0 °F 8.3 °F -0.9 °F 35% 30.29 in - WSW 19.6 mph - N/A   Clear
9:51 AM 26.1 °F 12.3 °F -0.9 °F 31% 30.28 in - WSW 19.6 mph - N/A   Clear
10:51 AM 30.9 °F 18.1 °F -0.0 °F 27% 30.24 in - SW 21.9 mph - N/A   Clear
11:51 AM 37.9 °F 26.6 °F 3.0 °F 23% 30.19 in - WSW 25.3 mph - N/A   Clear
12:51 PM 45.0 °F 35.8 °F 8.1 °F 22% 30.12 in - WSW 26.5 mph - N/A   Clear
1:51 PM 48.0 °F - 10.0 °F 22% 30.06 in - WSW 33.4 mph - N/A   Clear
2:51 PM 50.0 °F - 8.1 °F 18% 30.05 in - WSW 33.4 mph - N/A   Clear
3:51 PM 50.0 °F - 10.0 °F 20% 30.04 in - WSW 28.8 mph - N/A   Clear
4:51 PM 48.9 °F - 8.1 °F 19% 30.02 in - West 36.8 mph - N/A   Clear
5:51 PM 46.0 °F 36.5 °F 8.1 °F 21% 30.07 in - West 31.1 mph - N/A   Clear
6:51 PM 45.0 °F 35.8 °F 8.1 °F 22% 30.07 in - WSW 26.5 mph - N/A   Clear
7:51 PM 45.0 °F 35.8 °F 7.0 °F 21% 30.06 in - West 26.5 mph - N/A   Clear
8:51 PM 44.1 °F 35.9 °F 10.0 °F 25% 30.06 in - West 19.6 mph - N/A   Clear
9:51 PM 43.0 °F 34.0 °F 10.9 °F 27% 30.04 in - WSW 21.9 mph - N/A   Clear
10:51 PM 43.0 °F 34.8 °F 12.0 °F 28% 30.01 in - WSW 18.4 mph - N/A   Clear
11:51 PM 43.0 °F 32.9 °F 12.9 °F 30% 29.94 in - WSW 27.6 mph 32.2 mph N/A   Clear